User: anonymous   Login
Location: Slidell
(30.2789°N, 89.7378°W)
Time: 18:29:46
(UTC-06:00)
Language:

Cosmos 2360 Rocket - Orbit

View from above orbital plane
View from above orbital plane
View from above satellite
View from above satellite

Ground track
Ground track

The orbit data is extracted from the following two-line orbital elements,

1 25407U 98045B   17343.65625165 -.00000127 +00000-0 -40538-4 0  9994
2 25407 071.0128 032.6892 0010115 292.8160 067.1894 14.15771835000754
Epoch (UTC): 09 December 2017 15:45:00
Eccentricity: 0.0010115
inclination: 71.0128°
perigee height: 832 km
apogee height: 847 km
right ascension of ascending node: 32.6892°
argument of perigee: 292.8160°
revolutions per day: 14.15771835
mean anomaly at epoch: 67.1894°
orbit number at epoch: 75

The dashed part of the orbit path shows where the satellite is in the earth's shadow,  

DLR